Starlink 33546

operational
NORAD ID: 62287 Int'l Des: 2024-237 Owner: SPXS Country: US Constellation: starlink
LEOCIRCULAR

关于 Starlink 33546

正在加载描述...

实时位置

正在加载3D地球...

即将过境

高度历史

Altitude vs Time

uPlot chart will show altitude changes over time

两行轨道根数

1 62287U 24237W 25351.31627996 .00020878 00000-0 76567-3 0 9991
2 62287 43.0027 321.5909 0001574 273.0929 86.9743 15.27597260 58500
Epoch: Dec 17, 2025 • Age: 15 hours

当前状态

高度 484.4 km
速度 7.62 km/s
星下点 -10.02°S, 83.69°E
发射日期 Dec 8, 2024
运行时间 1 years
类型 internet

技术详情

分类 Payload
质量 530.00 kg
干质量 500.00 kg
总质量 530.00 kg
长度 0.30 m
直径 4.10 m
跨度 29.00 m
形状 Box + pan
制造商 SPXS
平台类型 Starlink V2MO
阶段状态 In Orbit
所有者/国家 SPXS/US

大型星座

Loading constellations...